Lid_Strength_Index
4 4 4 4 5 5 5 6 7 8 7 6 11 11 11 10 10 10 10 9 7 6 5 4 5 5 6 7 7 7 7 7 8 7 7 6 6 6
3 4 4 4 4 5 5 6 6 7 9 6 9 10 11 11 11 11 11 10 9 7 6 5 6 7 7 7 7 7 8 8 7 7 6 6 6 6
4 5 5 5 5 5 6 6 7 7 9 7 9 11 13 13 12 12 11 11 11 9 8 6 7 8 8 7 8 8 9 8 7 7 7 7 6 7
5 5 5 5 6 5 5 6 7 7 8 9 8 13 13 13 13 14 13 12 12 11 9 7 8 8 8 8 9 9 9 8 9 8 8 8 7 7
6 6 6 6 7 7 7 7 8 8 8 9 9 15 14 14 15 14 14 14 13 12 10 9 9 9 9 9 9 10 9 9 9 9 10 9 8 8
6 6 6 7 7 7 8 8 8 9 9 9 10 14 15 15 14 15 16 15 15 13 12 11 10 10 9 9 10 10 10 10 10 10 10 9 9 10
8 8 8 8 9 8 9 8 9 10 10 11 11 15 16 16 16 15 15 15 15 14 13 13 13 12 11 10 11 11 10 10 10 9 10 11 11 12
10 10 10 11 10 9 8 8 8 10 11 11 11 13 14 15 15 15 15 17 18 14 15 15 12 13 12 11 11 10 10 9 9 11 12 13 13 12
10 10 10 10 11 10 9 9 9 8 8 11 12 13 14 14 14 15 15 15 15 15 13 15 13 14 12 12 10 10 10 11 12 13 14 14 13 13
10 10 11 10 10 11 11 12 12 12 12 11 12 12 12 12 12 13 13 14 14 14 13 15 14 14 13 13 10 10 11 12 13 14 15 14 14 13
11 11 11 11 11 10 11 12 12 12 10 10 10 10 10 10 11 12 14 14 15 15 14 15 16 16 16 16 14 11 12 14 15 15 15 14 14 13
12 12 12 11 10 10 11 11 12 12 11 11 11 10 10 10 10 11 12 13 15 15 14 16 16 16 18 17 16 16 16 15 16 15 15 15 14 14
12 12 12 10 9 9 10 11 11 11 10 11 12 12 12 12 12 12 12 13 14 15 14 15 16 16 16 18 17 17 17 17 17 17 17 16 15 14
12 12 11 9 9 9 10 9 9 11 11 12 13 13 13 13 14 14 14 14 13 13 12 14 15 15 16 17 17 17 17 17 17 18 18 17 16 16
11 11 10 8 8 9 8 9 11 11 11 12 13 14 14 14 15 16 16 16 17 16 16 15 14 15 15 16 17 18 18 18 18 18 18 18 18 18
10 9 9 8 8 9 10 11 11 11 12 13 13 13 14 14 15 16 17 17 18 18 17 16 16 16 17 18 18 19 19 19 19 19 19 18 17 17
9 9 10 11 11 11 12 12 12 12 12 13 13 14 15 15 16 16 16 17 17 18 19 18 18 18 18 18 19 19 19 19 19 19 19 19 17 17
10 11 12 12 12 12 14 15 15 15 15 15 15 15 15 16 16 17 17 17 17 18 19 19 19 18 18 20 18 19 20 20 19 19 18 19 18 16
12 13 13 13 14 15 15 16 17 17 17 16 16 16 16 17 17 17 17 18 19 19 20 19 19 20 21 21 20 17 19 19 18 18 18 18 18 16
14 15 16 16 17 17 17 18 18 18 18 18 18 18 18 18 18 18 18 19 19 20 21 21 20 21 21 21 21 19 16 17 18 18 18 16 15 13
17 19 18 19 19 20 20 20 20 20 20 20 20 20 20 19 21 20 20 22 22 22 21 21 20 20 21 21 21 20 18 16 16 17 17 17 18 17
19 20 21 21 21 21 21 21 21 21 22 22 22 22 22 20 21 22 22 22 22 22 22 21 22 21 21 20 22 22 20 18 17 16 14 14 17 19
21 22 23 24 24 24 23 22 22 23 23 23 24 25 25 25 26 23 24 25 25 24 24 23 22 21 21 21 23 22 22 21 19 19 17 14 13 12